Location: Auckland
(36.8670°S, 174.7670°E)
Time: 22:26:52
(UTC+12:00)

Courier 1B Rocket - Pass Details

Date: 27 July 2019
Orbit: 920 x 1202 km, 28.2° (Epoch: 25 August)

Event Time Altitude Azimuth Distance (km) Brightness Sun altitude
Rises 01:47:13 0° 312° (NW) 4,044 - -65.3°
Reaches altitude 10° 01:50:25 10° 323° (NW) 3,109 - -64.8°
Maximum altitude 01:56:55 29° 19° (NNE) 2,028 - -63.8°
Drops below altitude 10° 02:03:27 10° 76° (ENE) 3,131 - -62.7°
Sets 02:06:41 0° 86° (E) 4,078 - -62.2°
Exits shadow 02:06:47 - 86° (E) 4,106 8.6 -62.2°
